Year,Month,Day,Hour,Minute,Value (Times are PST for temperature in C)
2011,05,29,00,00,10.70
2011,05,29,00,01,10.70
2011,05,29,00,02,10.70
2011,05,29,00,03,10.70
2011,05,29,00,04,10.70
2011,05,29,00,05,10.60
2011,05,29,00,06,10.60
2011,05,29,00,07,10.60
2011,05,29,00,08,10.60
2011,05,29,00,09,10.60
2011,05,29,00,10,10.60
2011,05,29,00,11,10.60
2011,05,29,00,12,10.60
2011,05,29,00,13,10.60
2011,05,29,00,14,10.60
2011,05,29,00,15,10.50
2011,05,29,00,16,10.50
2011,05,29,00,17,10.40
2011,05,29,00,18,10.40
2011,05,29,00,19,10.40
2011,05,29,00,20,10.40
2011,05,29,00,21,10.40
2011,05,29,00,22,10.40
2011,05,29,00,23,10.40
2011,05,29,00,24,10.40
2011,05,29,00,25,10.40
2011,05,29,00,26,10.40
2011,05,29,00,27,10.40
2011,05,29,00,28,10.40
2011,05,29,00,29,10.40
2011,05,29,00,30,10.40
2011,05,29,00,31,10.40
2011,05,29,00,32,10.40
2011,05,29,00,33,10.40
2011,05,29,00,34,10.40
2011,05,29,00,35,10.40
2011,05,29,00,36,10.40
2011,05,29,00,37,10.40
2011,05,29,00,38,10.40
2011,05,29,00,39,10.40
2011,05,29,00,40,10.40
2011,05,29,00,41,10.40
2011,05,29,00,42,10.40
2011,05,29,00,43,10.40
2011,05,29,00,44,10.40
2011,05,29,00,45,10.40
2011,05,29,00,46,10.40
2011,05,29,00,47,10.40
2011,05,29,00,48,10.40
2011,05,29,00,49,10.40
2011,05,29,00,50,10.40
2011,05,29,00,51,10.40
2011,05,29,00,52,10.40
2011,05,29,00,53,10.40
2011,05,29,00,54,10.40
2011,05,29,00,55,10.40
2011,05,29,00,56,10.40
2011,05,29,00,57,10.40
2011,05,29,00,58,10.40
2011,05,29,00,59,10.40
2011,05,29,01,00,10.40
2011,05,29,01,01,10.40
2011,05,29,01,02,10.40
2011,05,29,01,03,10.40
2011,05,29,01,04,10.40
2011,05,29,01,05,10.40
2011,05,29,01,06,10.40
2011,05,29,01,07,10.40
2011,05,29,01,08,10.50
2011,05,29,01,09,10.60
2011,05,29,01,10,10.60
2011,05,29,01,11,10.60
2011,05,29,01,12,10.60
2011,05,29,01,13,10.60
2011,05,29,01,14,10.60
2011,05,29,01,15,10.60
2011,05,29,01,16,10.60
2011,05,29,01,17,10.60
2011,05,29,01,18,10.60
2011,05,29,01,19,10.60
2011,05,29,01,20,10.60
2011,05,29,01,21,10.50
2011,05,29,01,22,10.40
2011,05,29,01,23,10.50
2011,05,29,01,24,10.50
2011,05,29,01,25,10.40
2011,05,29,01,26,10.40
2011,05,29,01,27,10.40
2011,05,29,01,28,10.40
2011,05,29,01,29,10.40
2011,05,29,01,30,10.40
2011,05,29,01,31,10.40
2011,05,29,01,32,10.40
2011,05,29,01,33,10.40
2011,05,29,01,34,10.40
2011,05,29,01,35,10.40
2011,05,29,01,36,10.40
2011,05,29,01,37,10.40
2011,05,29,01,38,10.40
2011,05,29,01,39,10.40
2011,05,29,01,40,10.40
2011,05,29,01,41,10.40
2011,05,29,01,42,10.40
2011,05,29,01,43,10.40
2011,05,29,01,44,10.40
2011,05,29,01,45,10.40
2011,05,29,01,46,10.40
2011,05,29,01,47,10.40
2011,05,29,01,48,10.40
2011,05,29,01,49,10.40
2011,05,29,01,50,10.40
2011,05,29,01,51,10.40
2011,05,29,01,52,10.40
2011,05,29,01,53,10.40
2011,05,29,01,54,10.40
2011,05,29,01,55,10.40
2011,05,29,01,56,10.40
2011,05,29,01,57,10.40
2011,05,29,01,58,10.40
2011,05,29,01,59,10.40
2011,05,29,02,00,10.40
2011,05,29,02,01,10.40
2011,05,29,02,02,10.40
2011,05,29,02,03,10.40
2011,05,29,02,04,10.50
2011,05,29,02,05,10.60
2011,05,29,02,06,10.60
2011,05,29,02,07,10.60
2011,05,29,02,08,10.60
2011,05,29,02,09,10.60
2011,05,29,02,10,10.60
2011,05,29,02,11,10.60
2011,05,29,02,12,10.60
2011,05,29,02,13,10.60
2011,05,29,02,14,10.60
2011,05,29,02,15,10.60
2011,05,29,02,16,10.60
2011,05,29,02,17,10.60
2011,05,29,02,18,10.60
2011,05,29,02,19,10.60
2011,05,29,02,20,10.60
2011,05,29,02,21,10.50
2011,05,29,02,22,10.40
2011,05,29,02,23,10.40
2011,05,29,02,24,10.40
2011,05,29,02,25,10.40
2011,05,29,02,26,10.40
2011,05,29,02,27,10.40
2011,05,29,02,28,10.40
2011,05,29,02,29,10.40
2011,05,29,02,30,10.40
2011,05,29,02,31,10.40
2011,05,29,02,32,10.40
2011,05,29,02,33,10.40
2011,05,29,02,34,10.40
2011,05,29,02,35,10.40
2011,05,29,02,36,10.40
2011,05,29,02,37,10.30
2011,05,29,02,38,10.30
2011,05,29,02,39,10.30
2011,05,29,02,40,10.30
2011,05,29,02,41,10.40
2011,05,29,02,42,10.40
2011,05,29,02,43,10.40
2011,05,29,02,44,10.40
2011,05,29,02,45,10.40
2011,05,29,02,46,10.40
2011,05,29,02,47,10.40
2011,05,29,02,48,10.40
2011,05,29,02,49,10.40
2011,05,29,02,50,10.40
2011,05,29,02,51,10.30
2011,05,29,02,52,10.30
2011,05,29,02,53,10.30
2011,05,29,02,54,10.30
2011,05,29,02,55,10.30
2011,05,29,02,56,10.30
2011,05,29,02,57,10.20
2011,05,29,02,58,10.20
2011,05,29,02,59,10.20
2011,05,29,03,00,10.20
2011,05,29,03,01,10.20
2011,05,29,03,02,10.20
2011,05,29,03,03,10.20
2011,05,29,03,04,10.10
2011,05,29,03,05,10.10
2011,05,29,03,06,10.10
2011,05,29,03,07,10.10
2011,05,29,03,08,10.10
2011,05,29,03,09,10.10
2011,05,29,03,10,10.10
2011,05,29,03,11,10.10
2011,05,29,03,12,10.10
2011,05,29,03,13,10.00
2011,05,29,03,14,9.90
2011,05,29,03,15,9.90
2011,05,29,03,16,9.90
2011,05,29,03,17,9.90
2011,05,29,03,18,9.90
2011,05,29,03,19,9.90
2011,05,29,03,20,9.90
2011,05,29,03,21,9.90
2011,05,29,03,22,9.80
2011,05,29,03,23,9.80
2011,05,29,03,24,9.80
2011,05,29,03,25,9.70
2011,05,29,03,26,9.70
2011,05,29,03,27,9.70
2011,05,29,03,28,9.70
2011,05,29,03,29,9.70
2011,05,29,03,30,9.70
2011,05,29,03,31,9.70
2011,05,29,03,32,9.70
2011,05,29,03,33,9.60
2011,05,29,03,34,9.50
2011,05,29,03,35,9.50
2011,05,29,03,36,9.40
2011,05,29,03,37,9.30
2011,05,29,03,38,9.20
2011,05,29,03,39,9.20
2011,05,29,03,40,9.20
2011,05,29,03,41,9.10
2011,05,29,03,42,9.10
2011,05,29,03,43,9.10
2011,05,29,03,44,9.10
2011,05,29,03,45,9.00
2011,05,29,03,46,9.00
2011,05,29,03,47,8.90
2011,05,29,03,48,8.90
2011,05,29,03,49,8.90
2011,05,29,03,50,8.80
2011,05,29,03,51,8.80
2011,05,29,03,52,8.80
2011,05,29,03,53,8.70
2011,05,29,03,54,8.70
2011,05,29,03,55,8.70
2011,05,29,03,56,8.70
2011,05,29,03,57,8.70
2011,05,29,03,58,8.70
2011,05,29,03,59,8.70
2011,05,29,04,00,8.70
2011,05,29,04,01,8.70
2011,05,29,04,02,8.70
2011,05,29,04,03,8.70
2011,05,29,04,04,8.70
2011,05,29,04,05,8.60
2011,05,29,04,06,8.60
2011,05,29,04,07,8.60
2011,05,29,04,08,8.60
2011,05,29,04,09,8.50
2011,05,29,04,10,8.50
2011,05,29,04,11,8.50
2011,05,29,04,12,8.50
2011,05,29,04,13,8.50
2011,05,29,04,14,8.50
2011,05,29,04,15,8.40
2011,05,29,04,16,8.40
2011,05,29,04,17,8.40
2011,05,29,04,18,8.40
2011,05,29,04,19,8.40
2011,05,29,04,20,8.40
2011,05,29,04,21,8.40
2011,05,29,04,22,8.30
2011,05,29,04,23,8.30
2011,05,29,04,24,8.30
2011,05,29,04,25,8.30
2011,05,29,04,26,8.30
2011,05,29,04,27,8.20
2011,05,29,04,28,8.20
2011,05,29,04,29,8.20
2011,05,29,04,30,8.20
2011,05,29,04,31,8.20
2011,05,29,04,32,8.20
2011,05,29,04,33,8.20
2011,05,29,04,34,8.20
2011,05,29,04,35,8.10
2011,05,29,04,36,8.10
2011,05,29,04,37,8.10
2011,05,29,04,38,8.10
2011,05,29,04,39,8.10
2011,05,29,04,40,8.10
2011,05,29,04,41,8.10
2011,05,29,04,42,8.00
2011,05,29,04,43,8.00
2011,05,29,04,44,8.00
2011,05,29,04,45,8.00
2011,05,29,04,46,8.00
2011,05,29,04,47,8.00
2011,05,29,04,48,8.00
2011,05,29,04,49,8.00
2011,05,29,04,50,7.90
2011,05,29,04,51,7.90
2011,05,29,04,52,7.90
2011,05,29,04,53,7.90
2011,05,29,04,54,7.80
2011,05,29,04,55,7.80
2011,05,29,04,56,7.80
2011,05,29,04,57,7.80
2011,05,29,04,58,7.80
2011,05,29,04,59,7.70
2011,05,29,05,00,7.70
2011,05,29,05,01,7.70
2011,05,29,05,02,7.70
2011,05,29,05,03,7.60
2011,05,29,05,04,7.60
2011,05,29,05,05,7.60
2011,05,29,05,06,7.60
2011,05,29,05,07,7.50
2011,05,29,05,08,7.50
2011,05,29,05,09,7.50
2011,05,29,05,10,7.50
2011,05,29,05,11,7.50
2011,05,29,05,12,7.50
2011,05,29,05,13,7.50
2011,05,29,05,14,7.50
2011,05,29,05,15,7.50
2011,05,29,05,16,7.50
2011,05,29,05,17,7.50
2011,05,29,05,18,7.50
2011,05,29,05,19,7.50
2011,05,29,05,20,7.50
2011,05,29,05,21,7.50
2011,05,29,05,22,7.50
2011,05,29,05,23,7.50
2011,05,29,05,24,7.50
2011,05,29,05,25,7.50
2011,05,29,05,26,7.50
2011,05,29,05,27,7.50
2011,05,29,05,28,7.50
2011,05,29,05,29,7.40
2011,05,29,05,30,7.40
2011,05,29,05,31,7.40
2011,05,29,05,32,7.40
2011,05,29,05,33,7.40
2011,05,29,05,34,7.40
2011,05,29,05,35,7.40
2011,05,29,05,36,7.40
2011,05,29,05,37,7.40
2011,05,29,05,38,7.40
2011,05,29,05,39,7.40
2011,05,29,05,40,7.30
2011,05,29,05,41,7.30
2011,05,29,05,42,7.30
2011,05,29,05,43,7.30
2011,05,29,05,44,7.30
2011,05,29,05,45,7.30
2011,05,29,05,46,7.30
2011,05,29,05,47,7.30
2011,05,29,05,48,7.30
2011,05,29,05,49,7.30
2011,05,29,05,50,7.30
2011,05,29,05,51,7.30
2011,05,29,05,52,7.30
2011,05,29,05,53,7.30
2011,05,29,05,54,7.40
2011,05,29,05,55,7.40
2011,05,29,05,56,7.40
2011,05,29,05,57,7.40
2011,05,29,05,58,7.40
2011,05,29,05,59,7.40
2011,05,29,06,00,7.40
2011,05,29,06,01,7.50
2011,05,29,06,02,7.50
2011,05,29,06,03,7.50
2011,05,29,06,04,7.50
2011,05,29,06,05,7.60
2011,05,29,06,06,7.60
2011,05,29,06,07,7.60
2011,05,29,06,08,7.60
2011,05,29,06,09,7.60
2011,05,29,06,10,7.70
2011,05,29,06,11,7.70
2011,05,29,06,12,7.70
2011,05,29,06,13,7.80
2011,05,29,06,14,7.80
2011,05,29,06,15,7.80
2011,05,29,06,16,7.80
2011,05,29,06,17,7.80
2011,05,29,06,18,7.80
2011,05,29,06,19,7.90
2011,05,29,06,20,7.90
2011,05,29,06,21,7.90
2011,05,29,06,22,8.00
2011,05,29,06,23,8.00
2011,05,29,06,24,8.00
2011,05,29,06,25,8.10
2011,05,29,06,26,8.10
2011,05,29,06,27,8.10
2011,05,29,06,28,8.20
2011,05,29,06,29,8.20
2011,05,29,06,30,8.20
2011,05,29,06,31,8.20
2011,05,29,06,32,8.30
2011,05,29,06,33,8.30
2011,05,29,06,34,8.30
2011,05,29,06,35,8.30
2011,05,29,06,36,8.40
2011,05,29,06,37,8.40
2011,05,29,06,38,8.40
2011,05,29,06,39,8.50
2011,05,29,06,40,8.50
2011,05,29,06,41,8.60
2011,05,29,06,42,8.60
2011,05,29,06,43,8.70
2011,05,29,06,44,8.70
2011,05,29,06,45,8.70
2011,05,29,06,46,8.80
2011,05,29,06,47,8.90
2011,05,29,06,48,8.90
2011,05,29,06,49,9.00
2011,05,29,06,50,9.00
2011,05,29,06,51,9.10
2011,05,29,06,52,9.20
2011,05,29,06,53,9.20
2011,05,29,06,54,9.30
2011,05,29,06,55,9.40
2011,05,29,06,56,9.40
2011,05,29,06,57,9.50
2011,05,29,06,58,9.50
2011,05,29,06,59,9.60
2011,05,29,07,00,9.70
2011,05,29,07,01,9.70
2011,05,29,07,02,9.80
2011,05,29,07,03,9.90
2011,05,29,07,04,9.90
2011,05,29,07,05,9.90
2011,05,29,07,06,10.00
2011,05,29,07,07,10.10
2011,05,29,07,08,10.10
2011,05,29,07,09,10.10
2011,05,29,07,10,10.20
2011,05,29,07,11,10.20
2011,05,29,07,12,10.20
2011,05,29,07,13,10.20
2011,05,29,07,14,10.30
2011,05,29,07,15,10.30
2011,05,29,07,16,10.30
2011,05,29,07,17,10.30
2011,05,29,07,18,10.30
2011,05,29,07,19,10.30
2011,05,29,07,20,10.40
2011,05,29,07,21,10.30
2011,05,29,07,22,10.30
2011,05,29,07,23,10.30
2011,05,29,07,24,10.40
2011,05,29,07,25,10.40
2011,05,29,07,26,10.40
2011,05,29,07,27,10.50
2011,05,29,07,28,10.60
2011,05,29,07,29,10.60
2011,05,29,07,30,10.60
2011,05,29,07,31,10.60
2011,05,29,07,32,10.60
2011,05,29,07,33,10.70
2011,05,29,07,34,10.70
2011,05,29,07,35,10.70
2011,05,29,07,36,10.70
2011,05,29,07,37,10.70
2011,05,29,07,38,10.70
2011,05,29,07,39,10.80
2011,05,29,07,40,10.80
2011,05,29,07,41,10.80
2011,05,29,07,42,10.80
2011,05,29,07,43,10.90
2011,05,29,07,44,10.90
2011,05,29,07,45,10.80
2011,05,29,07,46,10.80
2011,05,29,07,47,10.80
2011,05,29,07,48,10.80
2011,05,29,07,49,10.80
2011,05,29,07,50,10.90
2011,05,29,07,51,10.90
2011,05,29,07,52,10.90
2011,05,29,07,53,10.90
2011,05,29,07,54,10.90
2011,05,29,07,55,10.90
2011,05,29,07,56,10.90
2011,05,29,07,57,11.00
2011,05,29,07,58,11.10
2011,05,29,07,59,11.10
2011,05,29,08,00,11.10
2011,05,29,08,01,11.10
2011,05,29,08,02,11.10
2011,05,29,08,03,11.10
2011,05,29,08,04,11.20
2011,05,29,08,05,11.20
2011,05,29,08,06,11.20
2011,05,29,08,07,11.20
2011,05,29,08,08,11.30
2011,05,29,08,09,11.30
2011,05,29,08,10,11.30
2011,05,29,08,11,11.40
2011,05,29,08,12,11.40
2011,05,29,08,13,11.40
2011,05,29,08,14,11.40
2011,05,29,08,15,11.50
2011,05,29,08,16,11.60
2011,05,29,08,17,11.60
2011,05,29,08,18,11.60
2011,05,29,08,19,11.70
2011,05,29,08,20,11.70
2011,05,29,08,21,11.80
2011,05,29,08,22,11.80
2011,05,29,08,23,11.90
2011,05,29,08,24,11.90
2011,05,29,08,25,11.90
2011,05,29,08,26,12.00
2011,05,29,08,27,12.00
2011,05,29,08,28,12.00
2011,05,29,08,29,12.00
2011,05,29,08,30,12.10
2011,05,29,08,31,12.10
2011,05,29,08,32,12.20
2011,05,29,08,33,12.20
2011,05,29,08,34,12.30
2011,05,29,08,35,12.30
2011,05,29,08,36,12.40
2011,05,29,08,37,12.40
2011,05,29,08,38,12.50
2011,05,29,08,39,12.50
2011,05,29,08,40,12.50
2011,05,29,08,41,12.60
2011,05,29,08,42,12.60
2011,05,29,08,43,12.60
2011,05,29,08,44,12.60
2011,05,29,08,45,12.60
2011,05,29,08,46,12.60
2011,05,29,08,47,12.70
2011,05,29,08,48,12.70
2011,05,29,08,49,12.70
2011,05,29,08,50,12.70
2011,05,29,08,51,12.80
2011,05,29,08,52,12.80
2011,05,29,08,53,12.80
2011,05,29,08,54,12.80
2011,05,29,08,55,12.80
2011,05,29,08,56,12.80
2011,05,29,08,57,12.80
2011,05,29,08,58,12.80
2011,05,29,08,59,12.80
2011,05,29,09,00,12.80
2011,05,29,09,01,12.80
2011,05,29,09,02,12.80
2011,05,29,09,03,12.80
2011,05,29,09,04,12.80
2011,05,29,09,05,12.80
2011,05,29,09,06,12.80
2011,05,29,09,07,12.90
2011,05,29,09,08,12.90
2011,05,29,09,09,12.90
2011,05,29,09,10,13.00
2011,05,29,09,11,13.00
2011,05,29,09,12,13.10
2011,05,29,09,13,13.10
2011,05,29,09,14,13.10
2011,05,29,09,15,13.10
2011,05,29,09,16,13.20
2011,05,29,09,17,13.20
2011,05,29,09,18,13.30
2011,05,29,09,19,13.30
2011,05,29,09,20,13.30
2011,05,29,09,21,13.30
2011,05,29,09,22,13.40
2011,05,29,09,23,13.50
2011,05,29,09,24,13.50
2011,05,29,09,25,13.50
2011,05,29,09,26,13.50
2011,05,29,09,27,13.50
2011,05,29,09,28,13.50
2011,05,29,09,29,13.60
2011,05,29,09,30,13.60
2011,05,29,09,31,13.60
2011,05,29,09,32,13.60
2011,05,29,09,33,13.70
2011,05,29,09,34,13.70
2011,05,29,09,35,13.70
2011,05,29,09,36,13.80
2011,05,29,09,37,13.90
2011,05,29,09,38,14.00
2011,05,29,09,39,14.10
2011,05,29,09,40,14.20
2011,05,29,09,41,14.40
2011,05,29,09,42,14.50
2011,05,29,09,43,14.60
2011,05,29,09,44,14.60
2011,05,29,09,45,14.60
2011,05,29,09,46,14.60
2011,05,29,09,47,14.60
2011,05,29,09,48,14.60
2011,05,29,09,49,14.60
2011,05,29,09,50,14.70
2011,05,29,09,51,14.80
2011,05,29,09,52,14.80
2011,05,29,09,53,14.90
2011,05,29,09,54,14.90
2011,05,29,09,55,14.90
2011,05,29,09,56,14.90
2011,05,29,09,57,14.90
2011,05,29,09,58,14.90
2011,05,29,09,59,15.00
2011,05,29,10,00,15.10
2011,05,29,10,01,15.10
2011,05,29,10,02,15.20
2011,05,29,10,03,15.20
2011,05,29,10,04,15.20
2011,05,29,10,05,15.10
2011,05,29,10,06,15.10
2011,05,29,10,07,15.10
2011,05,29,10,08,15.10
2011,05,29,10,09,15.00
2011,05,29,10,10,14.80
2011,05,29,10,11,14.60
2011,05,29,10,12,14.50
2011,05,29,10,13,14.40
2011,05,29,10,14,14.40
2011,05,29,10,15,14.40
2011,05,29,10,16,14.40
2011,05,29,10,17,14.40
2011,05,29,10,18,14.40
2011,05,29,10,19,14.50
2011,05,29,10,20,14.50
2011,05,29,10,21,14.50
2011,05,29,10,22,14.40
2011,05,29,10,23,14.40
2011,05,29,10,24,14.50
2011,05,29,10,25,14.40
2011,05,29,10,26,14.40
2011,05,29,10,27,14.50
2011,05,29,10,28,14.50
2011,05,29,10,29,14.60
2011,05,29,10,30,14.60
2011,05,29,10,31,14.70
2011,05,29,10,32,14.70
2011,05,29,10,33,14.60
2011,05,29,10,34,14.50
2011,05,29,10,35,14.30
2011,05,29,10,36,14.20
2011,05,29,10,37,14.20
2011,05,29,10,38,14.30
2011,05,29,10,39,14.30
2011,05,29,10,40,14.30
2011,05,29,10,41,14.30
2011,05,29,10,42,14.40
2011,05,29,10,43,14.60
2011,05,29,10,44,14.70
2011,05,29,10,45,14.70
2011,05,29,10,46,14.80
2011,05,29,10,47,14.80
2011,05,29,10,48,15.00
2011,05,29,10,49,15.10
2011,05,29,10,50,15.10
2011,05,29,10,51,15.10
2011,05,29,10,52,15.20
2011,05,29,10,53,15.20
2011,05,29,10,54,15.20
2011,05,29,10,55,15.10
2011,05,29,10,56,15.10
2011,05,29,10,57,15.20
2011,05,29,10,58,15.10
2011,05,29,10,59,15.00
2011,05,29,11,00,14.80
2011,05,29,11,01,14.80
2011,05,29,11,02,14.90
2011,05,29,11,03,15.00
2011,05,29,11,04,15.00
2011,05,29,11,05,15.00
2011,05,29,11,06,15.10
2011,05,29,11,07,15.20
2011,05,29,11,08,15.30
2011,05,29,11,09,15.30
2011,05,29,11,10,15.30
2011,05,29,11,11,15.30
2011,05,29,11,12,15.30
2011,05,29,11,13,15.30
2011,05,29,11,14,15.30
2011,05,29,11,15,15.00
2011,05,29,11,16,14.90
2011,05,29,11,17,14.90
2011,05,29,11,18,14.90
2011,05,29,11,19,14.90
2011,05,29,11,20,15.00
2011,05,29,11,21,15.10
2011,05,29,11,22,15.20
2011,05,29,11,23,15.30
2011,05,29,11,24,15.20
2011,05,29,11,25,15.10
2011,05,29,11,26,15.00
2011,05,29,11,27,15.00
2011,05,29,11,28,15.10
2011,05,29,11,29,15.00
2011,05,29,11,30,14.90
2011,05,29,11,31,14.80
2011,05,29,11,32,14.80
2011,05,29,11,33,14.80
2011,05,29,11,34,15.00
2011,05,29,11,35,15.10
2011,05,29,11,36,15.10
2011,05,29,11,37,15.10
2011,05,29,11,38,15.10
2011,05,29,11,39,15.10
2011,05,29,11,40,15.10
2011,05,29,11,41,15.10
2011,05,29,11,42,15.10
2011,05,29,11,43,15.20
2011,05,29,11,44,15.10
2011,05,29,11,45,15.10
2011,05,29,11,46,15.10
2011,05,29,11,47,15.10
2011,05,29,11,48,15.20
2011,05,29,11,49,15.10
2011,05,29,11,50,15.00
2011,05,29,11,51,14.90
2011,05,29,11,52,14.90
2011,05,29,11,53,14.90
2011,05,29,11,54,14.90
2011,05,29,11,55,15.00
2011,05,29,11,56,15.00
2011,05,29,11,57,15.00
2011,05,29,11,58,15.00
2011,05,29,11,59,15.10
2011,05,29,12,00,15.10
2011,05,29,12,01,15.10
2011,05,29,12,02,15.20
2011,05,29,12,03,15.20
2011,05,29,12,04,15.20
2011,05,29,12,05,15.20
2011,05,29,12,06,15.30
2011,05,29,12,07,15.30
2011,05,29,12,08,15.30
2011,05,29,12,09,15.30
2011,05,29,12,10,15.40
2011,05,29,12,11,15.30
2011,05,29,12,12,15.30
2011,05,29,12,13,15.20
2011,05,29,12,14,15.00
2011,05,29,12,15,15.00
2011,05,29,12,16,15.10
2011,05,29,12,17,15.10
2011,05,29,12,18,15.30
2011,05,29,12,19,15.30
2011,05,29,12,20,15.30
2011,05,29,12,21,15.30
2011,05,29,12,22,15.20
2011,05,29,12,23,15.00
2011,05,29,12,24,14.90
2011,05,29,12,25,14.80
2011,05,29,12,26,14.80
2011,05,29,12,27,14.80
2011,05,29,12,28,14.90
2011,05,29,12,29,15.00
2011,05,29,12,30,15.00
2011,05,29,12,31,15.10
2011,05,29,12,32,15.20
2011,05,29,12,33,15.10
2011,05,29,12,34,15.10
2011,05,29,12,35,15.10
2011,05,29,12,36,15.00
2011,05,29,12,37,15.00
2011,05,29,12,38,15.10
2011,05,29,12,39,15.20
2011,05,29,12,40,15.30
2011,05,29,12,41,15.30
2011,05,29,12,42,15.30
2011,05,29,12,43,15.30
2011,05,29,12,44,15.20
2011,05,29,12,45,15.20
2011,05,29,12,46,15.10
2011,05,29,12,47,15.10
2011,05,29,12,48,15.00
2011,05,29,12,49,15.00
2011,05,29,12,50,15.00
2011,05,29,12,51,14.90
2011,05,29,12,52,14.90
2011,05,29,12,53,14.90
2011,05,29,12,54,14.90
2011,05,29,12,55,15.00
2011,05,29,12,56,15.00
2011,05,29,12,57,14.90
2011,05,29,12,58,14.90
2011,05,29,12,59,15.00
2011,05,29,13,00,14.90
2011,05,29,13,01,14.90
2011,05,29,13,02,14.90
2011,05,29,13,03,14.90
2011,05,29,13,04,14.90
2011,05,29,13,05,14.90
2011,05,29,13,06,15.00
2011,05,29,13,07,15.20
2011,05,29,13,08,15.30
2011,05,29,13,09,15.30
2011,05,29,13,10,15.30
2011,05,29,13,11,15.30
2011,05,29,13,12,15.40
2011,05,29,13,13,15.40
2011,05,29,13,14,15.30
2011,05,29,13,15,15.40
2011,05,29,13,16,15.40
2011,05,29,13,17,15.30
2011,05,29,13,18,15.30
2011,05,29,13,19,15.40
2011,05,29,13,20,15.60
2011,05,29,13,21,15.60
2011,05,29,13,22,15.60
2011,05,29,13,23,15.60
2011,05,29,13,24,15.60
2011,05,29,13,25,15.70
2011,05,29,13,26,15.80
2011,05,29,13,27,15.70
2011,05,29,13,28,15.70
2011,05,29,13,29,15.70
2011,05,29,13,30,15.80
2011,05,29,13,31,15.90
2011,05,29,13,32,15.90
2011,05,29,13,33,16.10
2011,05,29,13,34,16.10
2011,05,29,13,35,16.20
2011,05,29,13,36,16.30
2011,05,29,13,37,16.30
2011,05,29,13,38,16.10
2011,05,29,13,39,16.10
2011,05,29,13,40,16.00
2011,05,29,13,41,15.90
2011,05,29,13,42,15.90
2011,05,29,13,43,15.70
2011,05,29,13,44,15.70
2011,05,29,13,45,15.80
2011,05,29,13,46,15.80
2011,05,29,13,47,15.80
2011,05,29,13,48,15.80
2011,05,29,13,49,15.70
2011,05,29,13,50,15.70
2011,05,29,13,51,15.80
2011,05,29,13,52,15.70
2011,05,29,13,53,15.70
2011,05,29,13,54,15.70
2011,05,29,13,55,15.80
2011,05,29,13,56,15.80
2011,05,29,13,57,15.70
2011,05,29,13,58,15.60
2011,05,29,13,59,15.60
2011,05,29,14,00,15.60
2011,05,29,14,01,15.70
2011,05,29,14,02,15.80
2011,05,29,14,03,15.80
2011,05,29,14,04,15.80
2011,05,29,14,05,15.90
2011,05,29,14,06,16.00
2011,05,29,14,07,16.10
2011,05,29,14,08,16.10
2011,05,29,14,09,16.10
2011,05,29,14,10,16.10
2011,05,29,14,11,16.10
2011,05,29,14,12,16.20
2011,05,29,14,13,16.30
2011,05,29,14,14,16.40
2011,05,29,14,15,16.50
2011,05,29,14,16,16.60
2011,05,29,14,17,16.70
2011,05,29,14,18,16.60
2011,05,29,14,19,16.60
2011,05,29,14,20,16.60
2011,05,29,14,21,16.70
2011,05,29,14,22,16.70
2011,05,29,14,23,16.70
2011,05,29,14,24,16.60
2011,05,29,14,25,16.40
2011,05,29,14,26,16.40
2011,05,29,14,27,16.30
2011,05,29,14,28,16.30
2011,05,29,14,29,16.30
2011,05,29,14,30,16.40
2011,05,29,14,31,16.50
2011,05,29,14,32,16.60
2011,05,29,14,33,16.70
2011,05,29,14,34,16.70
2011,05,29,14,35,16.70
2011,05,29,14,36,16.70
2011,05,29,14,37,16.80
2011,05,29,14,38,16.80
2011,05,29,14,39,16.80
2011,05,29,14,40,16.70
2011,05,29,14,41,16.80
2011,05,29,14,42,16.90
2011,05,29,14,43,17.00
2011,05,29,14,44,17.20
2011,05,29,14,45,17.20
2011,05,29,14,46,17.10
2011,05,29,14,47,17.10
2011,05,29,14,48,17.10
2011,05,29,14,49,17.10
2011,05,29,14,50,17.30
2011,05,29,14,51,17.40
2011,05,29,14,52,17.40
2011,05,29,14,53,17.40
2011,05,29,14,54,17.50
2011,05,29,14,55,17.50
2011,05,29,14,56,17.40
2011,05,29,14,57,17.40
2011,05,29,14,58,17.50
2011,05,29,14,59,17.40
2011,05,29,15,00,17.30
2011,05,29,15,01,17.30
2011,05,29,15,02,17.20
2011,05,29,15,03,17.00
2011,05,29,15,04,17.00
2011,05,29,15,05,17.00
2011,05,29,15,06,17.00
2011,05,29,15,07,16.90
2011,05,29,15,08,16.90
2011,05,29,15,09,16.90
2011,05,29,15,10,17.00
2011,05,29,15,11,17.10
2011,05,29,15,12,17.20
2011,05,29,15,13,17.40
2011,05,29,15,14,17.40
2011,05,29,15,15,17.30
2011,05,29,15,16,17.30
2011,05,29,15,17,17.30
2011,05,29,15,18,17.10
2011,05,29,15,19,17.20
2011,05,29,15,20,17.30
2011,05,29,15,21,17.30
2011,05,29,15,22,17.30
2011,05,29,15,23,17.20
2011,05,29,15,24,17.10
2011,05,29,15,25,17.20
2011,05,29,15,26,17.20
2011,05,29,15,27,17.20
2011,05,29,15,28,17.10
2011,05,29,15,29,17.00
2011,05,29,15,30,17.10
2011,05,29,15,31,17.20
2011,05,29,15,32,17.20
2011,05,29,15,33,17.20
2011,05,29,15,34,17.30
2011,05,29,15,35,17.30
2011,05,29,15,36,17.30
2011,05,29,15,37,17.50
2011,05,29,15,38,17.50
2011,05,29,15,39,17.40
2011,05,29,15,40,17.30
2011,05,29,15,41,17.30
2011,05,29,15,42,17.30
2011,05,29,15,43,17.30
2011,05,29,15,44,17.20
2011,05,29,15,45,17.20
2011,05,29,15,46,17.30
2011,05,29,15,47,17.20
2011,05,29,15,48,17.10
2011,05,29,15,49,17.10
2011,05,29,15,50,17.20
2011,05,29,15,51,17.10
2011,05,29,15,52,17.10
2011,05,29,15,53,17.10
2011,05,29,15,54,17.00
2011,05,29,15,55,17.00
2011,05,29,15,56,17.10
2011,05,29,15,57,17.30
2011,05,29,15,58,17.20
2011,05,29,15,59,17.20
2011,05,29,16,00,17.10
2011,05,29,16,01,17.10
2011,05,29,16,02,17.20
2011,05,29,16,03,17.30
2011,05,29,16,04,17.50
2011,05,29,16,05,17.50
2011,05,29,16,06,17.50
2011,05,29,16,07,17.40
2011,05,29,16,08,17.40
2011,05,29,16,09,17.30
2011,05,29,16,10,17.30
2011,05,29,16,11,17.30
2011,05,29,16,12,17.30
2011,05,29,16,13,17.30
2011,05,29,16,14,17.30
2011,05,29,16,15,17.40
2011,05,29,16,16,17.50
2011,05,29,16,17,17.50
2011,05,29,16,18,17.60
2011,05,29,16,19,17.60
2011,05,29,16,20,17.70
2011,05,29,16,21,17.60
2011,05,29,16,22,17.60
2011,05,29,16,23,17.70
2011,05,29,16,24,17.80
2011,05,29,16,25,17.80
2011,05,29,16,26,17.80
2011,05,29,16,27,17.60
2011,05,29,16,28,17.50
2011,05,29,16,29,17.50
2011,05,29,16,30,17.50
2011,05,29,16,31,17.30
2011,05,29,16,32,17.30
2011,05,29,16,33,17.20
2011,05,29,16,34,17.20
2011,05,29,16,35,17.30
2011,05,29,16,36,17.30
2011,05,29,16,37,17.30
2011,05,29,16,38,17.20
2011,05,29,16,39,17.20
2011,05,29,16,40,17.30
2011,05,29,16,41,17.40
2011,05,29,16,42,17.60
2011,05,29,16,43,17.50
2011,05,29,16,44,17.40
2011,05,29,16,45,17.30
2011,05,29,16,46,17.20
2011,05,29,16,47,17.10
2011,05,29,16,48,17.00
2011,05,29,16,49,16.90
2011,05,29,16,50,16.70
2011,05,29,16,51,16.70
2011,05,29,16,52,16.70
2011,05,29,16,53,16.80
2011,05,29,16,54,17.00
2011,05,29,16,55,17.10
2011,05,29,16,56,17.20
2011,05,29,16,57,17.30
2011,05,29,16,58,17.40
2011,05,29,16,59,17.30
2011,05,29,17,00,17.30
2011,05,29,17,01,17.30
2011,05,29,17,02,17.30
2011,05,29,17,03,17.30
2011,05,29,17,04,17.30
2011,05,29,17,05,17.20
2011,05,29,17,06,17.30
2011,05,29,17,07,17.30
2011,05,29,17,08,17.30
2011,05,29,17,09,17.30
2011,05,29,17,10,17.20
2011,05,29,17,11,17.10
2011,05,29,17,12,16.90
2011,05,29,17,13,16.90
2011,05,29,17,14,16.90
2011,05,29,17,15,16.90
2011,05,29,17,16,16.80
2011,05,29,17,17,16.80
2011,05,29,17,18,16.80
2011,05,29,17,19,16.80
2011,05,29,17,20,16.90
2011,05,29,17,21,16.90
2011,05,29,17,22,16.80
2011,05,29,17,23,16.70
2011,05,29,17,24,16.60
2011,05,29,17,25,16.60
2011,05,29,17,26,16.40
2011,05,29,17,27,16.40
2011,05,29,17,28,16.40
2011,05,29,17,29,16.40